Location: Bowden
(51.9167°N, 114.0333°W)
Time: 00:39:09
(UTC+00:00)

Envisat - Pass Details

Date: 12 December 2021
Orbit: 764 x 766 km, 98.2° (Epoch: 28 January)

Event Time Altitude Azimuth Distance (km) Brightness Sun altitude
Rises 13:52:15 0° 8° (N) 3,248 6.1 -14.7°
Reaches altitude 10° 13:54:45 10° 359° (N) 2,317 5.3 -14.4°
Maximum altitude 13:59:14 32° 298° (WNW) 1,294 3.6 -13.7°
Drops below altitude 10° 14:03:42 10° 236° (SW) 2,302 5.1 -13.1°
Sets 14:06:11 0° 227° (SW) 3,224 6.0 -12.7°
